Location: Fontevrault
(47.1823°N, 0.0493°E)
Time: 13:35:33
(UTC+00:00)

Cosmos 1726 - Pass Details

Date: 16 June 2021
Orbit: 480 x 496 km, 82.5° (Epoch: 29 July)

Event Time Altitude Azimuth Distance (km) Brightness Sun altitude
Rises 20:35:25 0° 350° (N) 2,553 6.7 -5.7°
Reaches altitude 10° 20:37:31 10° 351° (N) 1,669 5.7 -5.9°
Maximum altitude 20:41:10 90° 279° (W) 488 2.1 -6.4°
Drops below altitude 10° 20:44:48 10° 172° (S) 1,656 4.3 -6.8°
Enters shadow 20:45:59 - 172° (S) 2,156 4.9 -6.9°
